Wind_Speed
11 10 9 9 10 10 10 10 10 10 10 9 9 9 8 8 8 8 8 8 8 8 8 8 7 8 8 9 9 9 9 9 9 10 10 11 10 11 11 11 12 12 12
10 10 9 9 9 10 10 10 10 10 9 9 9 8 8 8 8 9 9 9 9 9 9 9 8 8 9 9 10 9 9 9 10 10 10 10 11 11 11 11 11 11 11
10 11 10 10 10 10 10 10 10 10 9 9 8 9 8 9 9 9 8 9 9 9 10 9 9 9 9 10 10 10 10 10 11 11 11 11 11 11 11 10 10 10 10
10 11 11 11 10 10 10 9 9 9 8 8 8 9 9 9 9 9 9 9 9 9 9 10 10 10 10 10 10 11 11 11 11 12 12 12 12 10 10 9 9 10 10
11 11 11 11 10 10 10 10 10 9 9 9 9 8 9 9 9 9 10 10 10 9 9 10 10 10 10 10 11 11 11 12 12 12 12 12 12 11 10 9 10 10 10
12 12 11 11 11 11 11 11 10 10 10 10 10 10 9 10 10 10 10 10 10 10 11 11 11 11 11 11 11 11 11 12 12 12 12 12 12 11 10 10 10 10 11
12 13 12 12 12 11 11 11 11 10 11 11 11 10 11 11 11 11 10 10 11 11 11 12 12 12 11 11 12 12 12 12 12 12 12 12 12 11 11 11 11 11 11
13 13 13 13 12 11 12 12 12 12 12 11 11 12 12 12 12 12 12 11 12 11 11 11 12 12 12 11 12 12 12 12 12 12 12 12 12 11 11 11 11 11 11
13 12 13 13 12 11 12 12 12 12 13 12 12 13 13 13 13 13 13 13 12 12 11 12 12 12 12 12 13 13 13 13 13 13 13 12 12 11 12 12 11 11 12
14 13 13 13 12 12 12 12 13 13 13 13 13 13 13 13 14 14 14 14 14 13 14 13 13 13 13 13 14 14 13 13 13 13 13 13 13 13 13 12 13 13 13
15 16 15 14 14 13 14 14 14 14 14 14 14 14 14 13 13 14 14 15 15 15 15 15 15 15 15 15 15 15 15 15 15 15 14 14 14 15 14 14 14 14 14
16 17 16 16 16 15 16 16 16 16 16 17 17 16 16 15 15 15 16 16 16 16 16 17 17 17 17 17 17 17 17 17 17 17 16 16 16 16 16 16 16 16 16
17 17 18 17 17 17 17 17 18 18 18 19 18 18 18 17 17 17 17 18 18 19 19 19 19 19 19 19 19 19 19 18 18 18 18 17 17 17 17 17 17 18 18
18 18 18 19 18 19 19 20 20 21 21 21 20 20 20 20 20 20 20 20 20 21 21 21 21 21 21 21 21 21 21 20 20 20 19 19 19 19 19 19 19 19 19
20 19 20 20 21 21 21 22 22 23 22 22 22 22 22 22 22 22 22 23 22 22 22 22 22 22 22 23 23 22 22 23 22 22 21 21 21 20 21 21 20 20 20
22 22 22 23 23 23 24 24 24 24 24 24 24 24 24 24 24 24 25 25 25 24 24 24 24 24 24 24 25 25 24 24 25 25 24 24 23 22 22 22 22 22 22
24 24 25 24 24 25 25 25 26 26 26 26 26 26 26 26 27 27 27 27 27 26 27 26 26 26 26 26 27 27 27 26 26 26 26 27 26 25 24 24 24 24 24
25 25 26 26 26 26 26 26 27 27 27 28 28 27 27 28 29 29 28 29 29 29 29 29 29 28 28 28 28 28 28 29 29 29 28 28 28 27 26 26 26 26 26
26 26 26 27 27 26 26 27 28 28 28 29 29 29 29 29 29 29 29 29 30 30 30 30 31 30 30 30 30 30 30 30 30 30 30 29 29 29 28 27 27 27 27
28 27 27 28 28 28 28 28 29 30 30 30 30 30 30 30 30 30 30 30 30 30 30 31 31 31 31 31 32 32 32 31 31 31 30 30 30 30 29 29 28 28 29
29 29 29 29 29 30 29 29 29 30 30 31 30 31 30 30 30 31 31 31 31 31 30 31 32 32 32 32 32 32 32 32 32 32 32 32 32 31 31 31 30 29 29
29 29 30 30 29 29 29 30 30 30 30 31 31 32 32 31 31 32 32 32 32 32 31 31 31 32 32 32 32 32 32 32 33 32 32 32 32 32 32 32 31 31 31
29 29 30 30 30 29 30 30 31 31 31 31 32 32 32 32 32 32 33 33 34 34 34 33 32 32 32 31 32 32 33 33 33 33 33 33 33 33 33 32 32 32 33
29 29 30 30 30 31 31 31 31 32 32 33 32 32 32 32 32 33 34 34 34 35 34 34 34 33 32 32 32 33 33 33 34 34 34 33 33 34 34 34 34 34 35
31 31 31 30 30 31 32 32 32 33 33 33 33 33 33 33 33 33 33 34 34 35 35 35 35 34 34 33 33 33 34 34 34 35 35 35 35 35 35 35 35 35 35
31 31 31 31 30 30 31 32 33 34 34 34 34 34 34 34 34 34 33 33 34 35 36 36 36 36 36 35 35 35 35 36 37 37 36 36 36 36 36 36 36 36 35
Wind_Direction
270 265 264 268 271 272 272 276 276 280 283 282 280 278 277 277 277 275 278 282 281 279 275 274 273 273 273 276 281 286 292 294 294 292 289 288 286 289 287 287 285 284 279
268 264 265 265 268 273 275 279 283 285 285 281 278 277 275 276 280 282 279 281 279 279 276 273 272 274 276 277 278 285 291 297 298 296 294 293 291 290 290 288 286 283 280
269 267 266 267 266 269 273 277 279 280 281 277 273 272 274 274 276 277 279 279 276 278 275 270 274 280 280 281 281 284 290 295 299 299 297 297 294 289 287 286 284 284 282
268 265 263 261 261 264 270 275 276 275 276 275 272 271 272 272 272 274 276 277 275 276 276 272 271 276 279 280 282 282 287 291 294 297 298 299 297 292 287 286 285 285 284
265 262 260 259 260 263 266 270 273 272 272 272 274 275 272 270 270 274 277 276 275 276 277 276 276 276 278 279 282 284 288 290 291 296 300 300 298 292 287 284 284 286 287
262 262 262 264 264 264 266 269 272 273 271 269 269 271 271 270 272 275 279 278 275 278 278 277 278 278 280 281 283 285 288 289 288 292 298 300 299 292 287 285 284 285 285
265 262 263 265 267 267 265 267 270 272 270 268 269 270 270 269 271 273 275 278 277 278 280 279 278 278 279 282 282 283 286 288 288 290 293 294 295 291 289 288 287 286 285
270 267 267 267 266 269 268 268 268 270 270 269 268 269 270 270 272 274 275 278 278 278 278 280 278 278 278 278 279 281 283 286 288 290 292 292 290 288 287 287 286 285 286
271 270 271 271 268 269 269 268 268 269 269 272 274 272 270 270 271 274 274 275 277 276 276 280 281 279 279 279 279 279 280 282 283 286 289 288 287 285 285 285 285 285 286
268 270 271 270 270 271 270 270 270 270 270 272 273 275 275 272 270 272 273 274 275 274 274 281 282 280 281 280 280 278 280 280 282 285 285 283 282 282 282 283 283 283 284
268 267 268 270 270 270 269 268 269 270 270 270 271 273 273 273 272 271 271 271 272 273 274 276 278 277 276 277 279 281 281 280 280 282 284 285 283 282 281 282 281 281 281
268 267 267 268 269 269 269 269 270 271 271 270 268 269 270 271 272 272 270 271 273 274 274 275 274 274 273 275 276 278 279 279 280 281 284 285 284 284 281 280 279 279 280
268 268 268 270 270 271 272 271 271 271 271 270 270 269 271 271 272 273 273 272 275 274 274 275 275 274 273 274 275 276 276 277 277 279 282 283 284 284 281 278 278 278 279
271 266 267 267 269 271 272 271 271 271 271 270 270 271 271 271 272 273 274 274 275 276 274 273 273 273 273 274 276 275 274 275 275 277 279 281 282 283 282 280 278 278 279
273 268 267 269 269 271 272 273 273 272 271 270 270 271 270 271 272 273 274 276 278 278 276 274 274 273 272 273 274 275 274 274 274 275 277 278 281 282 282 280 278 278 278
272 273 272 271 270 271 272 272 274 273 271 271 269 270 270 271 272 273 275 276 278 277 276 276 276 275 274 274 274 273 273 273 273 273 273 276 277 279 280 278 277 278 278
271 271 271 271 271 271 271 272 274 274 274 273 271 270 270 270 271 272 274 274 275 276 276 276 276 275 275 275 274 272 271 271 271 272 272 273 274 275 277 277 276 276 277
273 271 272 273 274 273 273 272 272 273 274 273 273 272 271 270 271 271 272 273 274 274 274 274 275 275 275 274 273 273 271 269 269 270 270 271 272 273 274 275 275 274 274
276 273 273 274 274 275 274 273 272 273 273 274 274 273 272 271 270 271 272 272 273 274 273 273 273 274 273 272 272 272 271 270 268 268 269 270 272 272 272 273 274 274 273
275 275 275 275 275 275 275 275 275 275 274 275 275 274 273 271 271 271 270 271 270 271 271 272 272 273 273 272 272 271 270 270 270 269 269 270 271 272 272 273 274 274 274
276 275 275 276 276 275 275 275 276 277 276 276 276 276 274 271 271 270 270 271 270 270 270 271 272 271 271 272 272 271 271 269 270 270 270 269 269 271 272 273 275 274 273
280 276 275 275 275 274 274 274 275 276 277 278 277 276 276 274 272 271 270 270 270 271 271 271 271 271 271 271 272 272 270 270 271 271 270 270 270 271 272 273 274 274 274
282 279 277 276 274 274 274 274 275 276 277 278 279 278 278 275 273 272 272 271 271 272 271 271 271 271 272 272 271 271 271 271 271 271 271 270 270 271 272 273 273 273 273
283 282 281 278 276 275 275 274 275 276 278 279 280 279 278 276 274 273 274 273 272 272 271 270 271 272 272 273 272 272 272 273 272 271 270 270 270 271 271 272 273 274 274
283 284 283 281 279 278 277 276 276 276 278 279 280 279 278 277 276 275 274 273 273 272 271 271 270 270 271 272 271 271 271 271 271 270 270 269 270 271 272 273 273 273 274
285 285 284 281 280 279 279 278 278 277 279 279 279 279 278 278 277 276 275 274 273 273 272 272 271 270 271 271 270 270 271 271 271 271 271 270 269 270 271 271 272 272 273
Height
5849 5848 5848 5848 5847 5847 5846 5845 5844 5843 5842 5841 5840 5840 5840 5840 5840 5840 5840 5840 5840 5840 5840 5841 5841 5841 5841 5842 5841 5841 5841 5841 5840 5840 5840 5839 5838 5837 5836 5835 5834 5834 5834
5846 5846 5845 5845 5845 5844 5843 5842 5841 5840 5839 5839 5838 5838 5838 5838 5838 5838 5838 5838 5838 5838 5838 5838 5839 5839 5839 5839 5839 5839 5839 5838 5838 5837 5837 5836 5836 5834 5833 5832 5831 5830 5830
5843 5843 5843 5843 5842 5842 5841 5840 5838 5837 5837 5836 5836 5836 5836 5836 5836 5836 5836 5835 5835 5836 5836 5836 5836 5836 5837 5837 5837 5836 5836 5836 5835 5834 5834 5833 5832 5831 5830 5829 5828 5827 5827
5841 5840 5840 5840 5839 5839 5838 5837 5836 5835 5835 5834 5834 5834 5834 5833 5834 5834 5833 5833 5833 5833 5833 5834 5834 5834 5834 5834 5834 5834 5833 5833 5832 5831 5830 5830 5828 5827 5826 5826 5825 5825 5824
5838 5837 5837 5836 5836 5836 5835 5835 5834 5833 5832 5832 5832 5832 5831 5831 5831 5831 5831 5831 5831 5831 5831 5831 5832 5832 5832 5831 5831 5831 5830 5830 5829 5828 5827 5826 5825 5824 5823 5823 5823 5822 5822
5835 5835 5834 5834 5834 5833 5833 5832 5831 5831 5830 5830 5829 5829 5829 5829 5829 5829 5829 5829 5829 5829 5829 5829 5829 5829 5829 5829 5828 5828 5827 5827 5826 5825 5824 5823 5822 5821 5821 5820 5820 5820 5819
5833 5832 5832 5831 5831 5831 5830 5829 5829 5828 5828 5827 5827 5827 5827 5826 5826 5826 5826 5826 5826 5826 5826 5826 5826 5826 5826 5826 5825 5825 5824 5824 5823 5822 5821 5820 5819 5819 5818 5818 5817 5817 5816
5830 5829 5829 5829 5828 5828 5827 5827 5826 5826 5825 5825 5824 5824 5824 5824 5824 5824 5824 5824 5824 5824 5824 5824 5823 5823 5823 5823 5822 5822 5821 5821 5820 5819 5818 5817 5816 5816 5815 5815 5814 5814 5813
5826 5826 5826 5826 5825 5825 5824 5824 5824 5823 5823 5822 5821 5821 5821 5821 5821 5821 5821 5821 5821 5821 5821 5821 5820 5820 5820 5819 5819 5819 5818 5818 5817 5816 5815 5814 5813 5813 5812 5812 5811 5811 5811
5823 5823 5823 5822 5822 5822 5821 5820 5820 5820 5820 5819 5818 5818 5817 5817 5817 5818 5818 5818 5818 5818 5818 5817 5817 5817 5816 5816 5816 5815 5815 5814 5813 5813 5812 5811 5810 5810 5809 5809 5808 5808 5807
5820 5819 5819 5818 5818 5818 5817 5817 5816 5816 5816 5815 5815 5815 5814 5814 5814 5814 5814 5814 5814 5814 5814 5814 5813 5813 5813 5812 5812 5812 5811 5811 5810 5809 5809 5808 5807 5806 5806 5805 5805 5804 5804
5815 5815 5815 5814 5814 5814 5813 5813 5812 5812 5812 5812 5811 5811 5811 5810 5810 5810 5810 5810 5810 5810 5810 5809 5809 5809 5808 5808 5808 5808 5807 5807 5806 5805 5805 5804 5803 5802 5802 5801 5801 5800 5800
5811 5810 5810 5810 5810 5809 5809 5808 5808 5807 5807 5807 5806 5806 5806 5806 5806 5806 5806 5805 5805 5805 5805 5804 5804 5804 5804 5803 5803 5803 5802 5802 5802 5801 5800 5800 5799 5798 5797 5797 5796 5796 5795
5805 5805 5805 5805 5805 5804 5804 5803 5803 5802 5802 5801 5801 5801 5801 5801 5801 5800 5800 5800 5800 5799 5799 5799 5799 5798 5798 5798 5797 5797 5797 5797 5796 5796 5795 5795 5794 5793 5793 5792 5792 5791 5790
5800 5800 5799 5799 5799 5798 5798 5797 5797 5796 5796 5795 5795 5795 5795 5795 5795 5794 5794 5794 5794 5793 5793 5793 5792 5792 5792 5792 5791 5791 5791 5791 5791 5790 5790 5789 5789 5788 5787 5787 5786 5785 5785
5794 5793 5793 5793 5792 5792 5792 5791 5790 5790 5789 5789 5789 5788 5788 5788 5788 5788 5788 5788 5787 5787 5786 5786 5786 5785 5785 5785 5784 5784 5784 5784 5784 5784 5783 5783 5782 5782 5781 5781 5780 5780 5779
5787 5786 5786 5786 5785 5785 5784 5784 5783 5783 5782 5782 5782 5781 5781 5781 5781 5781 5780 5780 5780 5780 5779 5779 5778 5778 5777 5777 5777 5776 5776 5776 5776 5776 5776 5776 5775 5775 5775 5774 5774 5773 5773
5780 5779 5779 5778 5778 5777 5777 5776 5776 5775 5775 5774 5773 5773 5773 5773 5773 5772 5772 5772 5772 5771 5771 5770 5770 5769 5769 5768 5768 5768 5768 5768 5768 5768 5768 5768 5768 5767 5767 5767 5766 5766 5766
5772 5771 5771 5770 5770 5769 5769 5769 5768 5767 5767 5766 5765 5764 5764 5764 5763 5763 5763 5763 5763 5762 5762 5761 5761 5760 5760 5759 5759 5759 5759 5759 5759 5759 5759 5759 5759 5759 5759 5759 5759 5758 5758
5764 5763 5763 5762 5762 5761 5760 5760 5759 5758 5758 5757 5756 5756 5755 5755 5754 5754 5754 5754 5753 5753 5752 5752 5751 5751 5750 5750 5749 5749 5749 5749 5750 5750 5750 5750 5750 5750 5750 5750 5750 5750 5750
5756 5755 5754 5754 5753 5752 5751 5751 5750 5749 5748 5748 5747 5746 5745 5745 5745 5744 5744 5744 5744 5743 5743 5742 5742 5741 5741 5740 5739 5738 5739 5739 5740 5740 5741 5741 5741 5741 5741 5741 5741 5741 5741
5747 5746 5746 5745 5744 5743 5742 5742 5741 5740 5739 5738 5737 5737 5736 5735 5734 5734 5734 5734 5734 5734 5733 5733 5732 5732 5731 5730 5729 5729 5729 5729 5730 5730 5731 5731 5731 5731 5731 5731 5731 5731 5731
5739 5737 5736 5735 5734 5734 5733 5732 5731 5730 5729 5728 5727 5726 5725 5725 5724 5724 5724 5724 5723 5723 5723 5723 5722 5722 5721 5720 5720 5719 5719 5720 5720 5721 5721 5721 5721 5721 5721 5721 5721 5721 5721
5730 5728 5727 5726 5725 5724 5723 5722 5721 5720 5719 5718 5717 5716 5716 5715 5714 5714 5713 5713 5713 5713 5713 5713 5713 5712 5712 5711 5710 5710 5710 5710 5710 5710 5710 5710 5711 5711 5711 5711 5710 5710 5710
5720 5718 5717 5716 5715 5714 5713 5712 5711 5710 5709 5708 5707 5706 5705 5705 5704 5704 5703 5703 5702 5702 5702 5702 5702 5702 5702 5701 5700 5700 5700 5699 5699 5699 5700 5700 5700 5700 5700 5699 5699 5699 5698
5710 5709 5707 5706 5705 5703 5702 5701 5700 5699 5698 5697 5696 5695 5695 5694 5693 5693 5692 5691 5691 5691 5690 5690 5690 5690 5691 5690 5690 5689 5689 5688 5688 5688 5688 5688 5688 5688 5688 5688 5688 5687 5687